User: anonymous   Login
Location: Unspecified
(0.0000°N, 0.0000°E)
Time: 22:14:42
(UTC+00:00)
Language:

ERTS 1 - Orbit

View from above orbital plane
View from above orbital plane
View from above satellite
View from above satellite

Ground track
Ground track

The orbit data is extracted from the following two-line orbital elements,

1  6126U 72058A   18290.93768011  .00000054  00000-0  69709-4 0  9996
2  6126  99.1307 244.6790 0007577 334.3265  25.7521 13.97532876357154
Epoch (UTC): 17 October 2018 22:30:15
Eccentricity: 0.0007577
inclination: 99.1307°
perigee height: 897 km
apogee height: 908 km
right ascension of ascending node: 244.6790°
argument of perigee: 334.3265°
revolutions per day: 13.97532876
mean anomaly at epoch: 25.7521°
orbit number at epoch: 35715

The dashed part of the orbit path shows where the satellite is in the earth's shadow,  

DLR